Meteopurmerend
purmerend
Purmerend - Baaienwijk



My webcam  My webcam


Onweer radar Meer informatie blitzortung!


Regen radar Meer informatie rain snow radar


Bezoek onze andere website:

CandyAppleRed WebdesignWebdesign Purmerend Candy Apple Red

MeteopurmerendBlog

Template documentation
and downloads



Het weer levert geen direct gevaar op.    Er zijn geen waarschuwingen afgegeven.

15 daagse weersverwachting Leeds (GB)

  • Overzicht
  • Per uur
  • 15 dagen
  • Extra
  • Vergelijk
  • Kaarten
  • Dagkaart
  • Meer »
  • Info
  • Statistieken
  • Directe link
    Temp 6h Neerslag Wind  
 05:17     21:10    Daglengte: 15:53 Vandaag
07:00
15°
0.7 mm
4
13:00
18°
0.7 mm
5
19:00
15°
1.2 mm
4
 05:18     21:08    Daglengte: 15:50 Morgen
01:00
13°
 
4
07:00
13°
 
5
13:00
16°
 
7
19:00
16°
 
6
 05:20     21:06    Daglengte: 15:46 Vrijdag 30 Jul
01:00
14°
 
4
07:00
13°
15.4 mm
2
13:00
18°
45.0 mm
2
19:00
16°
48.7 mm
2
 05:22     21:04    Daglengte: 15:42 Zaterdag 31 Jul
01:00
15°
12.7 mm
4
Locatie info
Region: England
Latitude: 53.7948°N
Longitude: -1.5465°E
50 masl
Postcode: LS1 5
Temp/Neerslag /Baro Onweer/Dauwpunt
    Temp Baro 1h Neerslag Dauwpunt Wind UV Bewolking  
 05:17     21:10    Daglengte: 15:53 Vandaag
06:00
15°
1003.2 hPa
48%
13.4°
3
Windvlaag: 3.8 m/s
72%
07:00
15°
1002.9 hPa 0.7 mm
82%
12.9°
4
Windvlaag: 3.3 m/s
69%
08:00
16°
1002.9 hPa
74%
11.6°
5
Windvlaag: 3.7 m/s
61%
09:00
16°
1003.0 hPa
16%
10.6°
5
Windvlaag: 3.1 m/s
39%
10:00
17°
1003.1 hPa
15%
9.7°
5
Windvlaag: 2.4 m/s
83%
11:00
17°
1002.8 hPa
14%
8.6°
5
Windvlaag: 2.6 m/s
77%
12:00
18°
1002.7 hPa
25%
8.4°
5
Windvlaag: 3.7 m/s
19%
13:00
18°
1002.6 hPa 0.7 mm
82%
8.0°
5
Windvlaag: 3.8 m/s
18%
14:00
18°
1002.6 hPa 1.2 mm
82%
8.9°
5
Windvlaag: 3.7 m/s
66%
15:00
18°
1002.3 hPa
43%
10.0°
5
Windvlaag: 4.3 m/s
65%
16:00
17°
1002.0 hPa
75%
12.3°
5
Windvlaag: 5 m/s
58%
17:00
17°
1002.0 hPa
30%
12.8°
4
Windvlaag: 4.7 m/s
55%
18:00
17°
1001.9 hPa
30%
12.1°
4
Windvlaag: 3 m/s
73%
19:00
15°
1001.9 hPa
16%
10.9°
4
Windvlaag: 3.3 m/s
69%
20:00
15°
1002.0 hPa
14%
10.1°
5
Windvlaag: 5.5 m/s
67%
21:00
14°
1002.3 hPa
14%
10.0°
5
Windvlaag: 4.3 m/s
70%
22:00
13°
1002.3 hPa
15%
10.7°
5
Windvlaag: 4.1 m/s
15%
23:00
13°
1002.3 hPa
14%
10.7°
4
Windvlaag: 4.3 m/s
37%
 05:18     21:08    Daglengte: 15:50 Morgen
00:00
13°
1002.3 hPa
14%
11.0°
4
Windvlaag: 5 m/s
64%
01:00
13°
1002.3 hPa
14%
11.2°
4
Windvlaag: 4.3 m/s
15%
02:00
13°
1002.5 hPa
14%
11.6°
4
Windvlaag: 1.8 m/s
10%
03:00
12°
1002.9 hPa
14%
10.8°
4
Windvlaag: 0.9 m/s
8%
04:00
12°
1003.1 hPa
14%
11.1°
4
Windvlaag: 4.6 m/s
9%
05:00
12°
1003.4 hPa
14%
11.2°
4
Windvlaag: 4.6 m/s
5%
06:00
12°
1003.5 hPa
14%
10.4°
5
Windvlaag: 5 m/s
4%
07:00
13°
1003.8 hPa
14%
10.3°
5
Windvlaag: 5.9 m/s
10%
08:00
14°
1004.0 hPa
14%
9.5°
6
Windvlaag: 7 m/s
18%
09:00
15°
1004.4 hPa
14%
9.7°
7
Windvlaag: 6.1 m/s
16%
10:00
15°
1004.5 hPa
15%
10.8°
7
Windvlaag: 5.6 m/s
17%
11:00
15°
1004.7 hPa
17%
11.7°
8
Windvlaag: 5.7 m/s
44%
12:00
16°
1004.9 hPa
18%
13.1°
8
Windvlaag: 5.7 m/s
44%
13:00
16°
1005.0 hPa
20%
13.4°
7
Windvlaag: 5.9 m/s
40%
14:00
17°
1005.1 hPa
14%
13.5°
7
Windvlaag: 5.7 m/s
50%
15:00
17°
1005.3 hPa
14%
12.3°
7
Windvlaag: 5.8 m/s
53%
16:00
17°
1005.5 hPa
17%
11.5°
8
Windvlaag: 6.3 m/s
69%
17:00
17°
1005.6 hPa
21%
10.9°
7
Windvlaag: 6 m/s
74%
18:00
17°
1005.8 hPa
20%
12.6°
7
Windvlaag: 4.8 m/s
64%
19:00
16°
1005.9 hPa
15%
13.1°
6
Windvlaag: 4.5 m/s
70%
20:00
16°
1006.1 hPa
14%
12.4°
6
Windvlaag: 4.7 m/s
61%
21:00
15°
1006.4 hPa
14%
12.4°
5
Windvlaag: 3.6 m/s
70%
22:00
15°
1006.7 hPa
50%
12.2°
5
Windvlaag: 4.5 m/s
78%
23:00
15°
1006.6 hPa
52%
11.5°
4
Windvlaag: 4 m/s
80%
 05:20     21:06    Daglengte: 15:46 Vrijdag 30 Jul
00:00
15°
1006.7 hPa
51%
11.4°
4
Windvlaag: 3.3 m/s
83%
01:00
14°
1006.5 hPa
15%
11.5°
4
Windvlaag: 3.7 m/s
79%
02:00
14°
1006.1 hPa
14%
11.4°
3
Windvlaag: 3.2 m/s
82%
03:00
14°
1005.9 hPa
14%
11.7°
2
Windvlaag: 2.9 m/s
76%
04:00
14°
1004.5 hPa
21%
11.9°
2
Windvlaag: 2.8 m/s
88%
05:00
13°
1004.4 hPa
40%
12.1°
2
Windvlaag: 2.4 m/s
94%
06:00
13°
1004.4 hPa 7.5 mm
100%
12.3°
2
Windvlaag: 2.4 m/s
99%
07:00
13°
1004.5 hPa 7.9 mm
100%
12.1°
2
Windvlaag: 2 m/s
98%
08:00
14°
1004.4 hPa 7.7 mm
100%
11.3°
2
Windvlaag: 1.6 m/s
97%
09:00
15°
1004.4 hPa 8.2 mm
100%
10.6°
2
Windvlaag: 0.7 m/s
95%
10:00
16°
1004.3 hPa 8.1 mm
100%
9.9°
2
Windvlaag: -0.3 m/s
96%
11:00
16°
1004.3 hPa 4.8 mm
100%
9.0°
2
Windvlaag: -0.8 m/s
93%
12:00
17°
1004.2 hPa 8.2 mm
100%
8.3°
2
Windvlaag: -0.5 m/s
95%
13:00
18°
1003.8 hPa 8.0 mm
100%
9.0°
2
Windvlaag: 0.1 m/s
96%
14:00
19°
1003.6 hPa 4.6 mm
100%
8.8°
3
Windvlaag: -1.1 m/s
93%
15:00
18°
1003.7 hPa 7.9 mm
100%
9.5°
3
Windvlaag: -4.7 m/s
100%
16:00
16°
1004.1 hPa 4.8 mm
100%
10.6°
3
Windvlaag: -6.3 m/s
96%
17:00
17°
1004.4 hPa 7.8 mm
100%
12.1°
2
Windvlaag: -4.3 m/s
98%
18:00
16°
1004.8 hPa 11.0 mm
100%
14.8°
2
Windvlaag: -3.1 m/s
95%
19:00
16°
1004.5 hPa 12.7 mm
100%
13.1°
2
Windvlaag: -1.5 m/s
94%
20:00
16°
1004.8 hPa 12.7 mm
100%
13.9°
2
Windvlaag: 1.8 m/s
96%
21:00
16°
1005.0 hPa
100%
14.1°
2
Windvlaag: 2.3 m/s
77%
22:00
15°
1005.3 hPa
90%
13.3°
3
Windvlaag: 1.6 m/s
85%
23:00
15°
1005.4 hPa
78%
13.0°
3
Windvlaag: 1.1 m/s
69%
 05:22     21:04    Daglengte: 15:42 Zaterdag 31 Jul
00:00
15°
1005.6 hPa
76%
12.6°
4
Windvlaag: 1.4 m/s
61%
01:00
15°
1005.5 hPa
23%
12.7°
4
Windvlaag: 1.1 m/s
59%
02:00
14°
1005.3 hPa
21%
12.6°
2
Windvlaag: 8.7 m/s
17%
03:00
14°
1005.3 hPa
21%
12.7°
2
Windvlaag: 8.7 m/s
19%
04:00
14°
1005.1 hPa
23%
12.6°
2
Windvlaag: 9.2 m/s
20%
05:00
14°
1005.0 hPa
27%
12.8°
2
Windvlaag: 9.2 m/s
20%
Temp/Neerslag /Baro Onweer/Dauwpunt
    Temp Baro Neerslag Dauwpunt Wind Bewolking  
 05:17     21:10    Daglengte: 15:53 Vandaag
07:00
15°
1002.9 hPa 0.7 mm 12.9°
4
69%
10:00
17°
1003.1 hPa   9.7°
5
83%
13:00
18°
1002.6 hPa 0.7 mm 8.0°
5
18%
16:00
17°
1002.0 hPa 1.2 mm 12.3°
5
58%
19:00
15°
1001.9 hPa   10.9°
4
69%
22:00
13°
1002.3 hPa   10.7°
5
15%
 05:18     21:08    Daglengte: 15:50 Morgen
01:00
13°
1002.3 hPa   11.2°
4
15%
04:00
12°
1003.1 hPa   11.1°
4
9%
07:00
13°
1003.8 hPa   10.3°
5
10%
10:00
15°
1004.5 hPa   10.8°
7
17%
13:00
16°
1005.0 hPa   13.4°
7
40%
16:00
17°
1005.5 hPa   11.5°
8
69%
19:00
16°
1005.9 hPa   13.1°
6
70%
22:00
15°
1006.7 hPa   12.2°
5
78%
 05:20     21:06    Daglengte: 15:46 Vrijdag 30 Jul
01:00
14°
1006.5 hPa   11.5°
4
79%
04:00
14°
1004.5 hPa   11.9°
2
88%
07:00
13°
1004.5 hPa 15.4 mm 12.1°
2
98%
10:00
16°
1004.3 hPa 24.0 mm 9.9°
2
96%
13:00
18°
1003.8 hPa 21.0 mm 9.0°
2
96%
16:00
16°
1004.1 hPa 17.3 mm 10.6°
3
96%
19:00
16°
1004.5 hPa 31.4 mm 13.1°
2
94%
22:00
15°
1005.3 hPa 12.7 mm 13.3°
3
85%
 05:22     21:04    Daglengte: 15:42 Zaterdag 31 Jul
01:00
15°
1005.5 hPa   12.7°
4
59%
04:00
14°
1005.1 hPa   12.6°
2
20%
07:00
15°
1005.4 hPa   13.2°
2
20%
10:00
16°
1007.3 hPa 8.2 mm 12.7°
3
1%
13:00
19°
1007.6 hPa 8.5 mm 11.2°
4
1%
16:00
20°
1007.2 hPa 8.8 mm 11.1°
5
1%
19:00
18°
1007.7 hPa 8.9 mm 11.3°
5
1%
22:00
14°
1008.5 hPa 8.9 mm 10.1°
3
1%
 05:23     21:03    Daglengte: 15:40 Zondag 01 Aug
01:00
13°
1008.5 hPa 8.9 mm 9.0°
2
1%
04:00
12°
1008.5 hPa 8.9 mm 9.1°
2
1%
07:00
13°
1009.2 hPa 9.1 mm 10.1°
2
1%
10:00
13°
1010.2 hPa 9.4 mm 11.0°
2
1%
13:00
13°
1011.5 hPa 9.9 mm 10.6°
2
1%
16:00
16°
1011.8 hPa 9.9 mm 9.9°
0
1%
19:00
16°
1011.9 hPa 10.4 mm 10.0°
1
1%
22:00
13°
1013.4 hPa 10.8 mm 10.1°
2
1%
 05:25     21:01    Daglengte: 15:36 Maandag 02 Aug
01:00
13°
1013.9 hPa 10.9 mm 9.7°
1
1%
04:00
13°
1014.1 hPa 10.9 mm 9.0°
1
1%
07:00
13°
1014.7 hPa 11.0 mm 8.4°
1
1%
10:00
13°
1015.4 hPa 11.1 mm 8.3°
1
1%
13:00
17°
1015.0 hPa 11.1 mm 9.0°
2
1%
16:00
18°
1014.2 hPa 11.5 mm 9.6°
2
1%
19:00
17°
1013.8 hPa 12.0 mm 10.1°
1
1%
22:00
15°
1014.4 hPa 12.7 mm 11.1°
0
1%
 05:27     20:59    Daglengte: 15:32 Dinsdag 03 Aug
01:00
13°
1014.5 hPa 12.7 mm 10.5°
1
1%
04:00
12°
1013.5 hPa 12.7 mm 9.9°
1
1%
07:00
13°
1013.5 hPa 12.7 mm 10.2°
1
1%
10:00
16°
1012.7 hPa 12.7 mm 10.2°
1
1%
13:00
21°
1010.9 hPa 12.8 mm 9.1°
2
1%
16:00
23°
1009.4 hPa 12.8 mm 6.9°
4
1%
19:00
21°
1008.6 hPa 12.8 mm 8.2°
3
1%
22:00
17°
1008.9 hPa 12.8 mm 8.9°
2
1%
 05:29     20:57    Daglengte: 15:28 Woensdag 04 Aug
01:00
16°
1008.1 hPa 12.8 mm 8.6°
1
1%
04:00
16°
1006.9 hPa   9.4°
2
1%
07:00
16°
1006.0 hPa 25.6 mm 10.6°
2
1%
13:00
20°
1004.1 hPa 27.2 mm 13.3°
4
1%
19:00
18°
1002.5 hPa 35.7 mm 14.8°
3
1%
 05:30     20:55    Daglengte: 15:25 Donderdag 05 Aug
01:00
14°
1002.3 hPa 43.8 mm 12.5°
2
1%
07:00
14°
1001.4 hPa 43.8 mm 12.3°
1
1%
13:00
19°
1000.5 hPa 46.1 mm 12.1°
4
1%
19:00
19°
999.7 hPa 50.4 mm 9.3°
4
1%
 05:32     20:53    Daglengte: 15:21 Vrijdag 06 Aug
01:00
14°
999.6 hPa 50.5 mm 10.1°
1
1%
07:00
14°
998.2 hPa 50.5 mm 10.3°
1
1%
13:00
21°
996.9 hPa 50.5 mm 9.0°
1
1%
19:00
18°
996.9 hPa 53.3 mm 13.1°
2
1%
 05:34     20:51    Daglengte: 15:17 Zaterdag 07 Aug
01:00
13°
1006.4 hPa 0.5 mm 10.2°
3
67%
07:00
13°
1006.3 hPa 0.6 mm 10.2°
3
60%
13:00
18°
1006.7 hPa 0.7 mm 10.9°
4
66%
19:00
17°
1006.8 hPa 2.0 mm 11.1°
3
71%
 05:35     20:49    Daglengte: 15:14 Zondag 08 Aug
01:00
13°
1007.7 hPa 0.7 mm 10.3°
2
70%
07:00
13°
1007.4 hPa 1.5 mm 10.4°
2
75%
13:00
17°
1008.3 hPa 1.9 mm 11.1°
3
71%
19:00
17°
1009.0 hPa 1.5 mm 11.4°
3
70%
 05:37     20:47    Daglengte: 15:10 Maandag 09 Aug
01:00
13°
1010.8 hPa 1.1 mm 10.0°
2
53%
07:00
13°
1011.2 hPa   10.4°
2
59%
13:00
19°
1012.4 hPa 0.6 mm 10.8°
4
60%
19:00
17°
1013.4 hPa 0.8 mm 10.7°
4
67%
 05:39     20:45    Daglengte: 15:06 Dinsdag 10 Aug
01:00
13°
1015.7 hPa 0.3 mm 10.0°
2
55%
07:00
13°
1016.2 hPa 0.5 mm 10.3°
2
53%
13:00
19°
1016.9 hPa 0.7 mm 10.6°
4
62%
19:00
18°
1017.2 hPa 0.2 mm 11.1°
3
62%
 05:41     20:43    Daglengte: 15:02 Woensdag 11 Aug
01:00
13°
1018.5 hPa 0.4 mm 10.2°
3
46%
07:00
13°
1018.1 hPa 0.2 mm 10.4°
2
53%
13:00
19°
1017.4 hPa 0.3 mm 11.0°
4
57%
19:00
18°
1016.2 hPa 0.8 mm 11.6°
3
65%
 05:42     20:41    Daglengte: 14:59 Donderdag 12 Aug
01:00
14°
1016.5 hPa 0.5 mm 11.3°
3
65%
  CAPE Lifted Index Hail Supercell Tornado SRH 3km CL BTM PRES CL TOP PRES Swiss DWD icon SMHI TS
 05:17     21:10    Daglengte: 15:53 Vandaag
06:00 131 J/kg -0.4 K 0 % 0 % 0 % 0 m²/s² 0 0 -0.28 61
07:00 97 J/kg 0.3 K 0 % 0 % 0 % 0 m²/s² 0 0 0.51 61
08:00 72 J/kg 0.9 K 0 % 0 % 0 % 0 m²/s² 0 0 1.29 3
09:00 54 J/kg 1.3 K 0 % 0 % 0 % 0 m²/s² 0 0 2.26 3
10:00 56 J/kg 1.2 K 0 % 0 % 0 % 0 m²/s² 0 0 3.18 3
11:00 113 J/kg 0.4 K 0 % 0 % 0 % 0 m²/s² 0 0 2.8 3
12:00 263 J/kg -1.0 K 0 % 0 % 0 % 0 m²/s² 0 0 1.52 2
13:00 406 J/kg -1.7 K 0 % 0 % 0 % 0 m²/s² 0 0 -0.68 2
14:00 0 J/kg 0.7 K 0 % 0 % 0 % 0 m²/s² 0 0 1.21 3
15:00 0 J/kg 0.8 K 0 % 0 % 0 % 0 m²/s² 0 0 1.55 3
16:00 4 J/kg 0.6 K 0 % 0 % 0 % 0 m²/s² 0 0 0.84 3
17:00 86 J/kg -0.6 K 0 % 0 % 0 % 0 m²/s² 0 0 0.48 3
18:00 95 J/kg -0.7 K 0 % 0 % 0 % 0 m²/s² 0 0 0.47 3
19:00 0 J/kg 2.8 K 0 % 0 % 0 % 0 m²/s² 0 0 3.13 3
20:00 0 J/kg 0.6 K 0 % 0 % 0 % 0 m²/s² 0 0 1.14 3
21:00 144 J/kg -0.6 K 0 % 0 % 0 % 0 m²/s² 0 0 -0.27 3
22:00 60 J/kg 0.2 K 0 % 0 % 0 % 0 m²/s² 0 0 0.44 2
23:00 0 J/kg -0.2 K 0 % 0 % 0 % 0 m²/s² 0 0 0.22 3
 05:18     21:08    Daglengte: 15:50 Morgen
00:00 137 J/kg -1.2 K 0 % 0 % 0 % 0 m²/s² 0 0 -0.63 3
01:00 230 J/kg -1.5 K 0 % 0 % 0 % 0 m²/s² 0 0 -1.02 2
02:00 214 J/kg -2.1 K 0 % 0 % 0 % 0 m²/s² 0 0 -1.11 2
03:00 170 J/kg -0.8 K 0 % 0 % 0 % 0 m²/s² 0 0 0.58 2
04:00 217 J/kg -1.3 K 0 % 0 % 0 % 0 m²/s² 0 0 -0.07 2
05:00 62 J/kg -0.1 K 0 % 0 % 0 % 0 m²/s² 0 0 1.46 2
06:00 0 J/kg 1.1 K 0 % 0 % 0 % 0 m²/s² 0 0 3.26 2
07:00 8 J/kg 1.3 K 0 % 0 % 0 % 0 m²/s² 0 0 4.3 2
08:00 21 J/kg 1.6 K 0 % 0 % 0 % 0 m²/s² 0 0 4.78 2
09:00 4 J/kg 2.8 K 0 % 0 % 0 % 0 m²/s² 0 0 5.65 2
10:00 4 J/kg 3.1 K 0 % 0 % 0 % 0 m²/s² 0 0 5.89 1
11:00 3 J/kg 3.6 K 0 % 0 % 0 % 0 m²/s² 0 0 7.17 3
12:00 5 J/kg 3.5 K 0 % 0 % 0 % 0 m²/s² 0 0 7.46 3
13:00 1 J/kg 3.3 K 0 % 0 % 0 % 0 m²/s² 0 0 5.82 3
14:00 5 J/kg 2.4 K 0 % 0 % 0 % 0 m²/s² 0 0 4.26 3
15:00 25 J/kg 1.5 K 0 % 0 % 0 % 0 m²/s² 0 0 3.6 3
16:00 32 J/kg 0.3 K 0 % 0 % 0 % 0 m²/s² 0 0 2.61 3
17:00 10 J/kg 0.5 K 0 % 0 % 0 % 0 m²/s² 0 0 2.75 3
18:00 39 J/kg 0.1 K 0 % 0 % 0 % 0 m²/s² 0 0 2.02 3
19:00 43 J/kg 0.0 K 0 % 0 % 0 % 0 m²/s² 0 0 1.56 3
20:00 0 J/kg 2.2 K 0 % 0 % 0 % 0 m²/s² 0 0 3.52 3
21:00 0 J/kg 2.1 K 0 % 0 % 0 % 0 m²/s² 0 0 2.97 3
22:00 0 J/kg 2.1 K 0 % 0 % 0 % 0 m²/s² 0 0 2.79 3
23:00 0 J/kg 2.4 K 0 % 0 % 0 % 0 m²/s² 0 0 2.91 3
 05:20     21:06    Daglengte: 15:46 Vrijdag 30 Jul
00:00 0 J/kg 2.6 K 0 % 0 % 0 % 0 m²/s² 0 0 3.08 3
01:00 0 J/kg 2.9 K 0 % 0 % 0 % 0 m²/s² 0 0 3.29 3
02:00 0 J/kg 2.9 K 0 % 0 % 0 % 0 m²/s² 0 0 3.23 3
03:00 0 J/kg 2.7 K 0 % 0 % 0 % 0 m²/s² 0 0 3.09 3
04:00 0 J/kg 3.0 K 0 % 0 % 0 % 0 m²/s² 0 0 3.6 3
05:00 0 J/kg 3.0 K 0 % 0 % 0 % 0 m²/s² 0 0 3.87 3
06:00 0 J/kg 3.3 K 0 % 0 % 0 % 0 m²/s² 0 0 4.23 61
07:00 0 J/kg 3.0 K 0 % 0 % 0 % 0 m²/s² 0 0 3.96 61
08:00 0 J/kg 2.3 K 0 % 0 % 0 % 0 m²/s² 0 0 3.41 61
09:00 17 J/kg 1.6 K 0 % 0 % 0 % 0 m²/s² 0 0 2.77 61
10:00 64 J/kg 1.1 K 0 % 0 % 0 % 0 m²/s² 0 0 2.27 61
11:00 82 J/kg 1.0 K 0 % 0 % 0 % 0 m²/s² 0 0 2.08 61
12:00 92 J/kg 0.8 K 0 % 0 % 0 % 0 m²/s² 0 0 1.73 61
13:00 106 J/kg 0.3 K 0 % 0 % 0 % 0 m²/s² 0 0 1.38 61
14:00 115 J/kg 0.1 K 0 % 0 % 0 % 0 m²/s² 0 0 1.03 61
15:00 216 J/kg -0.8 K 0 % 0 % 0 % 0 m²/s² 0 0 0.13 61
16:00 366 J/kg -1.4 K 0 % 0 % 0 % 0 m²/s² 0 0 -0.44 61
17:00 389 J/kg -1.6 K 0 % 0 % 0 % 0 m²/s² 0 0 -1.48 80
18:00 249 J/kg -1.0 K 0 % 0 % 0 % 0 m²/s² 0 0 -0.61 80
19:00 442 J/kg -2.0 K 0 % 0 % 0 % 0 m²/s² 0 0 -1.34 61
20:00 510 J/kg -1.8 K 0 % 0 % 0 % 0 m²/s² 0 0 -1.71 3
21:00 429 J/kg -1.6 K 0 % 0 % 0 % 0 m²/s² 0 0 -1.48 3
22:00 308 J/kg -0.9 K 0 % 0 % 0 % 0 m²/s² 0 0 -0.72 3
23:00 59 J/kg -0.1 K 0 % 0 % 0 % 0 m²/s² 0 0 0.29 3
 05:22     21:04    Daglengte: 15:42 Zaterdag 31 Jul
00:00 0 J/kg 0.0 K 0 % 0 % 0 % 0 m²/s² 0 0 0.33 3
01:00 0 J/kg -0.1 K 0 % 0 % 0 % 0 m²/s² 0 0 0.56 3
02:00 0 J/kg 0.3 K 0 % 0 % 0 % 0 m²/s² 0 0 0.9 2
03:00 0 J/kg 0.9 K 0 % 0 % 0 % 0 m²/s² 0 0 1.14 2
04:00 0 J/kg 0.4 K 0 % 0 % 0 % 0 m²/s² 0 0 0.79 2
05:00 0 J/kg 0.6 K 0 % 0 % 0 % 0 m²/s² 0 0 1.83 2
Temp Baro Wind Neerslag
  EWN Forecast EWN WRFDA DWD ICON FMI HIRLAM MET Norway GFS
 05:17     21:10    Daglengte: 15:53 Vandaag
07:00 15.1° 1002.9 hPa 4.1 m/s 0.7 mm 15.1° 1002.2 hPa 3.1 m/s 2.7 mm 15.0° 1003.0 hPa 3.2 m/s -0.7 mm 15.3° 1003.1 hPa 5.0 m/s 0.0 mm 14.2° 1003.0 hPa 3.4 m/s
10:00 16.7° 1003.1 hPa 5.4 m/s 0.0 mm 17.4° 1002.7 hPa 5.6 m/s 5.1 mm 16.7° 1003.2 hPa 4.8 m/s 0.0 mm 17.2° 1003.5 hPa 6.6 m/s 0.0 mm 17.7° 1002.8 hPa 4.8 m/s
13:00 18.3° 1002.6 hPa 5.0 m/s 0.7 mm 18.5° 1002.1 hPa 5.0 m/s 5.3 mm 18.2° 1002.7 hPa 4.7 m/s 0.1 mm 19.8° 1002.8 hPa 5.3 m/s 0.0 mm 19.4° 1002.2 hPa 5.4 m/s
16:00 17.4° 1002.0 hPa 4.7 m/s 1.2 mm 13.8° 1002.3 hPa 6.9 m/s 18.5 mm 17.8° 1002.3 hPa 4.6 m/s 0.1 mm 18.5° 1002.0 hPa 3.9 m/s 0.0 mm 18.3° 1001.9 hPa 4.9 m/s
19:00 15.4° 1001.9 hPa 4.5 m/s 0.0 mm 11.8° 1002.0 hPa 7.6 m/s 34.5 mm 15.8° 1001.9 hPa 5.0 m/s 0.0 mm 16.8° 1002.3 hPa 4.0 m/s 0.0 mm 16.0° 1001.7 hPa 5.3 m/s
22:00 13.4° 1002.3 hPa 4.6 m/s 0.0 mm 14.1° 1001.3 hPa 5.8 m/s 64.0 mm 13.4° 1002.2 hPa 4.4 m/s 0.0 mm 13.9° 1003.5 hPa 3.1 m/s 0.0 mm 13.7° 1002.2 hPa 5.3 m/s
 05:18     21:08    Daglengte: 15:50 Morgen
01:00 12.8° 1002.3 hPa 3.9 m/s 0.0 mm 13.5° 1001.1 hPa 5.7 m/s 64.5 mm 13.0° 1002.1 hPa 3.7 m/s 0.0 mm 12.7° 1004.1 hPa 2.8 m/s 0.0 mm 12.5° 1002.2 hPa 5.3 m/s
04:00 12.0° 1003.1 hPa 3.9 m/s 0.0 mm 13.3° 1001.4 hPa 3.5 m/s 64.8 mm 12.9° 1003.0 hPa 4.1 m/s 0.0 mm 11.1° 1004.8 hPa 1.8 m/s 0.0 mm 13.1° 1002.8 hPa 5.5 m/s
07:00 13.2° 1003.8 hPa 4.9 m/s 0.0 mm 13.7° 1001.9 hPa 5.5 m/s 65.3 mm 13.5° 1003.7 hPa 4.8 m/s 0.0 mm 13.2° 1005.7 hPa 3.7 m/s 0.0 mm 13.2° 1003.4 hPa 5.5 m/s
10:00 15.0° 1004.5 hPa 7.5 m/s 0.0 mm 15.5° 1002.5 hPa 7.5 m/s 65.3 mm 16.3° 1004.5 hPa 6.8 m/s 0.0 mm 14.0° 1006.2 hPa 7.6 m/s 0.0 mm 14.8° 1004.1 hPa 6.5 m/s
13:00 16.1° 1005.0 hPa 7.3 m/s 0.0 mm 15.2° 1003.1 hPa 8.1 m/s 65.4 mm 16.9° 1005.0 hPa 6.9 m/s 0.0 mm 14.6° 1006.3 hPa 6.9 m/s 0.0 mm 14.0° 1004.5 hPa 6.1 m/s
16:00 17.0° 1005.5 hPa 7.6 m/s 0.0 mm 18.7° 1003.0 hPa 7.4 m/s 65.5 mm 15.9° 1005.6 hPa 7.0 m/s 0.0 mm 17.7° 1007.2 hPa 7.4 m/s 0.0 mm 15.4° 1004.6 hPa 6.4 m/s
19:00 16.3° 1005.9 hPa 6.3 m/s 0.0 mm 19.1° 1004.1 hPa 7.3 m/s 65.5 mm 15.7° 1005.7 hPa 5.0 m/s 0.0 mm 16.2° 1008.5 hPa 6.3 m/s 0.0 mm 17.2° 1004.6 hPa 5.6 m/s
22:00 15.1° 1006.7 hPa 4.7 m/s 0.0 mm 16.0° 1005.4 hPa 5.5 m/s 65.5 mm 14.7° 1006.0 hPa 4.0 m/s 0.0 mm 15.8° 1010.5 hPa 4.7 m/s 0.0 mm 14.7° 1005.9 hPa 5.2 m/s
 05:20     21:06    Daglengte: 15:46 Vrijdag 30 Jul
01:00 14.4° 1006.5 hPa 3.9 m/s 0.0 mm 14.6° 1006.0 hPa 4.2 m/s 65.5 mm 14.2° 1005.6 hPa 2.6 m/s 0.0 mm 14.5° 1011.5 hPa 4.1 m/s 0.0 mm 13.7° 1006.6 hPa 4.7 m/s
04:00 13.5° 1004.5 hPa 2.4 m/s 0.0 mm 13.4° 1005.9 hPa 2.9 m/s 65.5 mm 13.5° 1004.4 hPa 1.0 m/s 0.0 mm 13.6° 1006.6 hPa 3.2 m/s
07:00 13.4° 1004.5 hPa 2.0 m/s 15.4 mm 13.7° 1006.4 hPa 3.5 m/s 65.5 mm 13.2° 1004.1 hPa 0.4 m/s 1.2 mm 14.4° 1006.7 hPa 2.9 m/s
10:00 15.5° 1004.3 hPa 2.2 m/s 24.0 mm 17.6° 1006.1 hPa 2.3 m/s 65.5 mm 14.3° 1003.7 hPa 1.6 m/s 3.3 mm 18.9° 1006.5 hPa 3.6 m/s
13:00 18.1° 1003.8 hPa 2.4 m/s 21.0 mm 20.5° 1005.1 hPa 2.3 m/s 65.5 mm 14.6° 1003.6 hPa 2.2 m/s 3.5 mm 21.2° 1005.3 hPa 2.8 m/s
16:00 16.4° 1004.1 hPa 3.2 m/s 17.3 mm 19.1° 1004.6 hPa 3.1 m/s 66.0 mm 16.1° 1003.6 hPa 2.5 m/s 0.7 mm 19.0° 1004.9 hPa 3.1 m/s
19:00 16.0° 1004.5 hPa 1.7 m/s 31.4 mm 17.3° 1004.4 hPa 1.7 m/s 92.4 mm 15.8° 1004.2 hPa 2.7 m/s 0.9 mm 16.6° 1005.0 hPa 2.4 m/s
22:00 15.5° 1005.3 hPa 3.3 m/s 12.7 mm 16.5° 1005.2 hPa 3.5 m/s 117.2 mm 15.1° 1005.2 hPa 1.6 m/s 0.2 mm 15.0° 1005.7 hPa 2.6 m/s
 05:22     21:04    Daglengte: 15:42 Zaterdag 31 Jul
01:00 14.8° 1005.5 hPa 4.0 m/s 0.0 mm 15.1° 1005.0 hPa 4.3 m/s 119.1 mm 14.5° 1005.5 hPa 1.6 m/s 0.0 mm 13.8° 1006.3 hPa 2.8 m/s
04:00 13.9° 1005.1 hPa 2.3 m/s 0.0 mm 14.5° 1004.5 hPa 3.8 m/s 119.1 mm 13.8° 1005.3 hPa 1.9 m/s 0.0 mm 13.2° 1006.1 hPa 2.7 m/s
07:00 14.8° 1005.4 hPa 2.4 m/s 0.0 mm 15.0° 1004.8 hPa 4.0 m/s 119.5 mm 14.8° 1005.6 hPa 2.0 m/s 0.0 mm 14.3° 1006.7 hPa 2.8 m/s
10:00 16.3° 1007.3 hPa 3.1 m/s 8.2 mm 16.3° 1007.3 hPa 3.1 m/s 8.2 mm
13:00 19.0° 1007.6 hPa 4.5 m/s 8.5 mm 19.0° 1007.6 hPa 4.5 m/s 8.5 mm
16:00 19.7° 1007.2 hPa 5.5 m/s 8.8 mm 19.7° 1007.2 hPa 5.5 m/s 8.8 mm
19:00 17.6° 1007.7 hPa 5.2 m/s 8.9 mm 17.6° 1007.7 hPa 5.2 m/s 8.9 mm
22:00 14.2° 1008.5 hPa 2.6 m/s 8.9 mm 14.2° 1008.5 hPa 2.6 m/s 8.9 mm
 05:23     21:03    Daglengte: 15:40 Zondag 01 Aug
01:00 12.7° 1008.5 hPa 2.4 m/s 8.9 mm 12.7° 1008.5 hPa 2.4 m/s 8.9 mm
04:00 11.9° 1008.5 hPa 1.7 m/s 8.9 mm 11.9° 1008.5 hPa 1.7 m/s 8.9 mm
07:00 12.9° 1009.2 hPa 1.5 m/s 9.1 mm 12.9° 1009.2 hPa 1.5 m/s 9.1 mm
10:00 13.0° 1010.2 hPa 1.7 m/s 9.4 mm 13.0° 1010.2 hPa 1.7 m/s 9.4 mm
13:00 13.5° 1011.5 hPa 1.9 m/s 9.9 mm 13.5° 1011.5 hPa 1.9 m/s 9.9 mm
16:00 16.2° 1011.8 hPa 0.1 m/s 9.9 mm 16.2° 1011.8 hPa 0.1 m/s 9.9 mm
19:00 15.8° 1011.9 hPa 1.5 m/s 10.4 mm 15.8° 1011.9 hPa 1.5 m/s 10.4 mm
22:00 13.4° 1013.4 hPa 1.8 m/s 10.8 mm 13.4° 1013.4 hPa 1.8 m/s 10.8 mm
 05:25     21:01    Daglengte: 15:36 Maandag 02 Aug
01:00 13.1° 1013.9 hPa 1.1 m/s 10.9 mm 13.1° 1013.9 hPa 1.1 m/s 10.9 mm
04:00 12.7° 1014.1 hPa 0.9 m/s 10.9 mm 12.7° 1014.1 hPa 0.9 m/s 10.9 mm
07:00 12.5° 1014.7 hPa 1.1 m/s 11.0 mm 12.5° 1014.7 hPa 1.1 m/s 11.0 mm
10:00 13.2° 1015.4 hPa 1.2 m/s 11.1 mm 13.2° 1015.4 hPa 1.2 m/s 11.1 mm
13:00 17.3° 1015.0 hPa 1.7 m/s 11.1 mm 17.3° 1015.0 hPa 1.7 m/s 11.1 mm
16:00 18.2° 1014.2 hPa 2.0 m/s 11.5 mm 18.2° 1014.2 hPa 2.0 m/s 11.5 mm
19:00 17.4° 1013.8 hPa 1.4 m/s 12.0 mm 17.4° 1013.8 hPa 1.4 m/s 12.0 mm
22:00 14.7° 1014.4 hPa 0.3 m/s 12.7 mm 14.7° 1014.4 hPa 0.3 m/s 12.7 mm
 05:27     20:59    Daglengte: 15:32 Dinsdag 03 Aug
01:00 12.8° 1014.5 hPa 1.0 m/s 12.7 mm 12.8° 1014.5 hPa 1.0 m/s 12.7 mm
04:00 11.9° 1013.5 hPa 0.9 m/s 12.7 mm 11.9° 1013.5 hPa 0.9 m/s 12.7 mm
07:00 12.8° 1013.5 hPa 0.6 m/s 12.7 mm 12.8° 1013.5 hPa 0.6 m/s 12.7 mm
10:00 16.5° 1012.7 hPa 1.3 m/s 12.7 mm 16.5° 1012.7 hPa 1.3 m/s 12.7 mm
13:00 20.9° 1010.9 hPa 2.5 m/s 12.8 mm 20.9° 1010.9 hPa 2.5 m/s 12.8 mm
16:00 22.8° 1009.4 hPa 3.7 m/s 12.8 mm 22.8° 1009.4 hPa 3.7 m/s 12.8 mm
19:00 21.3° 1008.6 hPa 3.2 m/s 12.8 mm 21.3° 1008.6 hPa 3.2 m/s 12.8 mm
22:00 17.5° 1008.9 hPa 2.3 m/s 12.8 mm 17.5° 1008.9 hPa 2.3 m/s 12.8 mm
 05:29     20:57    Daglengte: 15:28 Woensdag 04 Aug
01:00 15.8° 1008.1 hPa 1.4 m/s 12.8 mm 15.8° 1008.1 hPa 1.4 m/s 12.8 mm
04:00 15.8° 1006.9 hPa 2.3 m/s 12.8 mm 15.8° 1006.9 hPa 2.3 m/s 12.8 mm
07:00 15.8° 1006.0 hPa 2.5 m/s 12.8 mm 15.8° 1006.0 hPa 2.5 m/s 12.8 mm
13:00 19.8° 1004.1 hPa 4.4 m/s 14.4 mm 19.8° 1004.1 hPa 4.4 m/s 14.4 mm
19:00 18.2° 1002.5 hPa 3.0 m/s 19.6 mm 18.2° 1002.5 hPa 3.0 m/s 19.6 mm
 05:30     20:55    Daglengte: 15:25 Donderdag 05 Aug
01:00 14.1° 1002.3 hPa 1.8 m/s 21.9 mm 14.1° 1002.3 hPa 1.8 m/s 21.9 mm
07:00 13.9° 1001.4 hPa 1.5 m/s 21.9 mm 13.9° 1001.4 hPa 1.5 m/s 21.9 mm
13:00 19.2° 1000.5 hPa 3.9 m/s 23.9 mm 19.2° 1000.5 hPa 3.9 m/s 23.9 mm
19:00 19.1° 999.7 hPa 4.0 m/s 25.2 mm 19.1° 999.7 hPa 4.0 m/s 25.2 mm
 05:32     20:53    Daglengte: 15:21 Vrijdag 06 Aug
01:00 14.3° 999.6 hPa 1.5 m/s 25.2 mm 14.3° 999.6 hPa 1.5 m/s 25.2 mm
07:00 13.7° 998.2 hPa 0.7 m/s 25.2 mm 13.7° 998.2 hPa 0.7 m/s 25.2 mm
13:00 21.5° 996.9 hPa 1.3 m/s 25.3 mm 21.5° 996.9 hPa 1.3 m/s 25.3 mm
19:00 17.7° 996.9 hPa 2.0 m/s 27.6 mm 17.7° 996.9 hPa 2.0 m/s 27.6 mm
 05:34     20:51    Daglengte: 15:17 Zaterdag 07 Aug
01:00 13.2° 1006.4 hPa 2.7 m/s 0.5 mm
07:00 13.0° 1006.3 hPa 2.6 m/s 0.6 mm
13:00 18.0° 1006.7 hPa 3.5 m/s 0.7 mm
19:00 16.7° 1006.8 hPa 3.3 m/s 2.0 mm
 05:35     20:49    Daglengte: 15:14 Zondag 08 Aug
01:00 13.1° 1007.7 hPa 2.3 m/s 0.7 mm
07:00 12.9° 1007.4 hPa 2.2 m/s 1.5 mm
13:00 17.5° 1008.3 hPa 3.3 m/s 1.9 mm
19:00 17.3° 1009.0 hPa 2.8 m/s 1.5 mm
 05:37     20:47    Daglengte: 15:10 Maandag 09 Aug
01:00 13.0° 1010.8 hPa 2.4 m/s 1.1 mm
07:00 12.9° 1011.2 hPa 2.2 m/s 0.0 mm
13:00 18.7° 1012.4 hPa 3.9 m/s 0.6 mm
19:00 17.2° 1013.4 hPa 3.5 m/s 0.8 mm
 05:39     20:45    Daglengte: 15:06 Dinsdag 10 Aug
01:00 13.2° 1015.7 hPa 2.3 m/s 0.3 mm
07:00 13.1° 1016.2 hPa 2.4 m/s 0.5 mm
13:00 19.0° 1016.9 hPa 3.6 m/s 0.7 mm
19:00 17.9° 1017.2 hPa 3.4 m/s 0.2 mm
 05:41     20:43    Daglengte: 15:02 Woensdag 11 Aug
01:00 13.4° 1018.5 hPa 2.6 m/s 0.4 mm
07:00 13.2° 1018.1 hPa 2.3 m/s 0.2 mm
13:00 19.4° 1017.4 hPa 3.7 m/s 0.3 mm
19:00 17.9° 1016.2 hPa 3.0 m/s 0.8 mm
 05:42     20:41    Daglengte: 14:59 Donderdag 12 Aug
01:00 14.1° 1016.5 hPa 2.7 m/s 0.5 mm
FMI Hirlam - 7.5 km EWN WRFDA - 12 km DWD ICON - 7 km GFS - 25 km Basiskaart






























































Updatetijd (Europe/Amsterdam) Resolutie Lengte Stap
FMI Hirlam 01:45, 07:45, 13:45, 19:45 7.5 km 49h 1h
EWN WRFDA 05:30, 11:30, 17:30, 23:30 12 km 73h 1h
DWD ICON 06:00, 12:00, 18:00, 00:00 7 km 75h 1h
GFS 02:15, 08:15, 14:15, 20:15 25 km 237h 3h
30+ mm
25-30 mm
20-25 mm
15-20 mm
10-15 mm
6-10 mm
4-6 mm
2-4 mm
1-2 mm
0.5-1 mm
0.2-0.5 mm
0.1-0.2 mm
30+ mm
25-30 mm
20-25 mm
15-20 mm
10-15 mm
6-10 mm
4-6 mm
2-4 mm
1-2 mm
0.5-1 mm
0.2-0.5 mm
0.1-0.2 mm
Sneeuwval
Natte sneeuw
Hagel
Vorst
30+ mm
25-30 mm
20-25 mm
15-20 mm
10-15 mm
6-10 mm
4-6 mm
2-4 mm
1-2 mm
0.5-1 mm
0.2-0.5 mm
0.1-0.2 mm
Sneeuwval
Natte sneeuw
Hagel
Vorst
Onweer
50 mm
40 mm
30 mm
26 mm
22 mm
18 mm
14 mm
10 mm
9 mm
8 mm
7 mm
6 mm
5 mm
4.5 mm
4 mm
3.5 mm
3 mm
2.5 mm
2 mm
1.5 mm
1 mm
0.8 mm
0.6 mm
0.4 mm
0.2 mm
0.05 mm
35°
30°
25°
20°
15°
10°
-5°
-10°
-15°
-20°
-25°
-30°
-35°
33> m/s
29 m/s
25 m/s
21 m/s
17 m/s
14 m/s
11 m/s
8 m/s
5 m/s
3 m/s
0 m/s
2600 J/kg
2400 J/kg
2200 J/kg
2000 J/kg
1800 J/kg
1600 J/kg
1400 J/kg
1200 J/kg
1000 J/kg
800 J/kg
600 J/kg
400 J/kg
200 J/kg
70 dBZ
65 dBZ
60 dBZ
55 dBZ
50 dBZ
45 dBZ
40 dBZ
35 dBZ
30 dBZ
25 dBZ
20 dBZ
15 dBZ
10 dBZ
5 dBZ
-1 K
-2 K
-3 K
-4 K
-5 K
-6 K
-7 K
-8 K
-9 K
950 m²/s²
900 m²/s²
850 m²/s²
800 m²/s²
750 m²/s²
700 m²/s²
650 m²/s²
600 m²/s²
550 m²/s²
500 m²/s²
450 m²/s²
400 m²/s²
350 m²/s²
300 m²/s²
250 m²/s²
200 m²/s²
150 m²/s²
100 m²/s²
46 m/s
44 m/s
42 m/s
40 m/s
38 m/s
36 m/s
34 m/s
32 m/s
30 m/s
28 m/s
26 m/s
24 m/s
22 m/s
20 m/s
16 m/s
12 m/s
8 m/s
4 m/s
30 m/s
28 m/s
26 m/s
24 m/s
22 m/s
20 m/s
18 m/s
16 m/s
14 m/s
12 m/s
10 m/s
8 m/s
6 m/s
4 m/s
2 m/s
3.0
2.8
2.6
2.4
2.2
2.0
1.8
1.6
1.4
1.2
1.0
0.8
0.6
0.4
0.2
15
14
13
12
11
10
9
8
7
6
5
4
3
2
1
90%
80%
70%
60%
50%
40%
30%
20%
10%
42
40
38
36
34
32
30
28
26
24
22
20
18
16
14
12
90+ cm
80-90 cm
70-80 cm
60-70 cm
50-60 cm
40-50 cm
30-40 cm
20-30 cm
10-20 cm
1-10 cm
Sneeuwval
Natte sneeuw
Regen
>120 mm
115 mm
110 mm
105 mm
100 mm
95 mm
90 mm
85 mm
80 mm
75 mm
70 mm
65 mm
60 mm
55 mm
50 mm
45 mm
45 mm
40 mm
35 mm
30 mm
25 mm
20 mm
15 mm
10 mm
5 mm
0.1 mm
960 hPa
880 hPa
800 hPa
720 hPa
640 hPa
560 hPa
584 gpdm
568 gpdm
552 gpdm
536 gpdm
520 gpdm
504 gpdm
488 gpdm
Extreem zwaar Noodweer Kans op onweer
15% 15% 5% 50% 15%

Dag




Kaart






35°
30°
25°
20°
15°
10°